STARLINK-34527

导读

STARLINK-34527是美国SpaceX星链星座的成员,于2025年6月23日由美国发射升空。作为星链低轨互联网卫星星座的补充卫星,它延续了星链星座的设计方向,运行在近地轨道,负责提供全球范围的宽带互联网服务,为星链网络覆盖优化提供支撑,也进一步扩充了星链星座的卫星规模。

Basic Information
目录编号:
64482
目录名称:
STARLINK-34527
国际标识:
2025-133L
轨道中心:
EARTH
卫星名称:
STARLINK-34527
卫星全名:
STARLINK-34527
卫星状态:
在轨 (已飞行438 天)
发射日期:
2025-06-23 UTC
国别 :
美国 (US)
星等 :
--
Orbit Information
数据来源 国际轨道数据
星历时间: 2026-09-04T04:18:14+0800
6小时前
查看轨道信息
半长轴: 6840.845km
偏心率: 0.0001663
轨道倾角: 53.159°
近地点辐角 61.227°
升交点赤经 7.248°
平近点角 298.890°
近地点: 461.57km
远地点: 463.846km
周期: 93.848分钟
每日圈数: 15.343985
Detailed Information
使用方式:
暂无
2D Orbit Map
3D Orbit Map
Orbit Altitude Analysis Chart
Orbit Inclination Analysis Chart
Orbit Comprehensive Analysis Chart
View Comprehensive Chart
Conjunction Data List
Event ID Objects TCA Miss Dist (km) Collision Risk Probability Collision Risk Index (CRI) Action
CDM_260903-194106-448206-471121
2026-09-03T
19:41:13+0000
2.383 km
极远距离
1.755905E-6 低风险 0.4
CDM_260830-033106-370506-448221
2026-08-30T
03:31:15+0000
2.496 km
极远距离
1.367236E-6 低风险 0.38
CDM_260903-230405-258806-448221
2026-09-03T
23:04:31+0000
1.880 km
极远距离
1.275743E-6 低风险 0.37
CDM_260903-024005-246206-448222
2026-09-03T
02:40:06+0000
2.475 km
极远距离
8.125907E-7 极低风险 0.33